Regional Weather Roundup
Issued by NWS Sioux Falls, SD

Home | Current Version | Previous Version | Text Only | Print | Product List | Glossary Off
Versions: 1 2 3 4 5 6 7 8 9 10 11 12 13 14 15 16 17 18 19 20 21 22 23 24 25 26 27 28 29 30 31 32 33 34 35 36 37 38 39 40 41 42 43 44 45 46 47 48 49 50

000
ASUS43 KFSD 202102
RWRFSD

WEATHER ROUNDUP FOR SE SOUTH DAKOTA/SW MINNESOTA/NW IOWA
NATIONAL WEATHER SERVICE SIOUX FALLS SD
300 PM CST SAT JAN 20 2018

NOTE: "FAIR" INDICATES FEW OR NO CLOUDS BELOW 12,000 FEET WITH NO
SIGNIFICANT WEATHER AND OR OBSTRUCTIONS TO VISIBILITY.


SDZ038>040-050-052>070-202200-
SOUTHEAST SOUTH DAKOTA

CITY           SKY/WX    TMP DP  RH WIND       PRES   REMARKS
BROOKINGS      PTSUNNY   43  31  62 CALM      29.87R
CHAMBERLAIN    CLOUDY    43  36  75 NW5       29.89R
HURON          CLOUDY    46  32  58 N8        29.89R
MADISON        FAIR      41  34  75 N7        29.86S
MITCHELL       CLOUDY    43  33  68 N7        29.89S
SIOUX FALLS    CLOUDY    44  35  70 N9        29.87S
WINNER         FAIR      42  34  73 N7        29.89S
YANKTON        PTSUNNY   46  32  58 NW9       29.86R
$$

MNZ071-072-080-081-089-090-097-098-202200-
SOUTHWEST MINNESOTA

CITY           SKY/WX    TMP DP  RH WIND       PRES   REMARKS
FAIRMONT       CLOUDY    43  35  73 N3        29.88S
JACKSON        CLOUDY    45  32  61 CALM      29.87R
LUVERNE        CLOUDY    41  32  70 N6        29.87S
MARSHALL       CLOUDY    47  28  47 N6        29.88S
MONTEVIDEO     CLOUDY    45  30  57 NW6       29.88R
PIPESTONE      CLOUDY    39  30  70 CALM      29.86S
REDWOOD FALLS  CLOUDY    45  31  58 W6        29.87S
TRACY          MOSUNNY   47  31  55 CALM      29.87R
WORTHINGTON    CLOUDY    46  32  58 N6        29.87R
$$

IAZ001>003-012>014-020>022-031-032-NEZ013-014-SDZ071-202200-
NORTHWEST IOWA

CITY           SKY/WX    TMP DP  RH WIND       PRES   REMARKS
CHEROKEE       MOSUNNY   54  32  43 NE6       29.84R
DENISON        SUNNY     50  34  53 E7        29.84R
ESTHERVILLE    CLOUDY    45  34  65 N5        29.85F
LE MARS        PTSUNNY   52  34  50 N12       29.84R
ORANGE CITY    PTSUNNY   48  36  61 NE5       29.84S
SHELDON        MOSUNNY   46  37  71 N7        29.83F
SIOUX CITY     SUNNY     56  31  38 NE9       29.83R
SPENCER        CLOUDY    49  34  56 NE7       29.84F
STORM LAKE     SUNNY     52  34  50 NE9       29.83S
$$

ABBREVIATIONS USED IN REMARKS
   TC - TEMPERATURE IN CELSIUS
  WCI - WIND CHILL INDEX
   HX - HEAT INDEX
  VSB - VISIBILITY





USA.gov is the U.S. government's official web portal to all federal, state and local government web resources and services.